• MPC Preparation (Info)

  • MPEC 2015-K54 : 2015 KT56

    The following Minor Planet Electronic Circular may be linked-to from your own Web pages, but must not otherwise be redistributed electronically.

    A form allowing access to any MPEC is at the bottom of this page.


    Read MPEC 2015-K53 Read MPEC 2015-K55


    M.P.E.C. 2015-K54                                Issued 2015 May 22, 22:18 UT
    
         The Minor Planet Electronic Circulars contain information on unusual
             minor planets and routine data on comets.  They are published
       on behalf of Commission 20 of the International Astronomical Union by the
              Minor Planet Center, Smithsonian Astrophysical Observatory,
                              Cambridge, MA 02138, U.S.A.
    
                 Prepared using the Tamkin Foundation Computer Network
    
                                  MPC@CFA.HARVARD.EDU
                URL https://www.minorplanetcenter.net/    ISSN 1523-6714
    
                                       2015 KT56
    
    Observations:
         K15K56T* C2015 05 21.32785 14 35 28.695-16 03 59.84         19.4 wLEK054F51
         K15K56T  C2015 05 21.33997 14 35 55.040-16 04 00.50         19.6 wLEK054F51
         K15K56T EC2015 05 21.94420 14 57 34.72 -16 00 38.4                qEK054J95
         K15K56T KC2015 05 21.97330 14 58 31.45 -16 00 14.3          19.2 RqEK054J95
         K15K56T  C2015 05 22.33329 15 10 05.11 -15 53 07.5          19.5 RoEK054926
         K15K56T  C2015 05 22.33733 15 10 12.34 -15 53 02.3          19.4 RoEK054926
         K15K56T  C2015 05 22.34140 15 10 19.53 -15 52 57.0          19.3 RoEK054926
         K15K56T  C2015 05 22.36985 15 11 10.00 -15 52 17.8          19.4 RoEK054926
         K15K56T KC2015 05 22.37098 15 11 12.23 -15 52 18.3          21.3 RoEK054291
         K15K56T KC2015 05 22.37220 15 11 14.40 -15 52 16.4          21.4 RoEK054291
         K15K56T  C2015 05 22.37391 15 11 17.19 -15 52 11.8          19.3 RoEK054926
         K15K56T  C2015 05 22.37797 15 11 24.42 -15 52 06.0          19.2 RoEK054926
    
    Observer details:
    291 LPL/Spacewatch II.  Observer J. V. Scotti.  1.8-m f/2.7 reflector + CCD.
    926 Tenagra II Observatory.  Observers M. Schwartz, P. R. Holvorcem.  Measurer
        M. Schwartz.  0.41-m f/3.75 astrograph + CCD.
    F51 Pan-STARRS 1, Haleakala.  Observers B. Gibson, T. Goggia, N. Primak,
        A. Schultz, M. Willman.  Measurers K. Chambers, S. Chastel, L. Denneau,
        H. Flewelling, M. Huber, E. Lilly, E. Magnier, R. Wainscoat, C. Waters,
        R. Weryk.  1.8-m Ritchey-Chretien + CCD.
    J95 Great Shefford.  Observer P. Birtwhistle.  0.40-m f/6.0 Schmidt-Cassegrain
        + CCD.
    
    Orbital elements:
    2015 KT56                                                Earth MOID = 0.0114 AU
    Epoch 2015 June 27.0 TT = JDT 2457200.5                 MPC
    M  18.32219              (2000.0)            P               Q
    n   0.29116501     Peri.  327.78759     -0.88740090     +0.45695609
    a   2.2544638      Node   239.52081     -0.40655510     -0.83803243
    e   0.5636749      Incl.    4.05326     -0.21733061     -0.29814891
    P   3.39           H   26.2           G   0.15           U   7
    Residuals in seconds of arc
    150521 F51  0.2+  0.0     150522 926  0.3-  0.2+    150522 291  0.0   0.1-
    150521 F51  0.2-  0.0     150522 926  0.5+  0.1+    150522 291  0.1+  0.1+
    150521 J95  0.4-  0.3+    150522 926  0.1-  0.1-    150522 926  0.4-  0.1+
    150521 J95  0.4+  0.4-    150522 926  0.2-  0.1-    150522 926  0.1+  0.1+
    
    Ephemeris:
    2015 KT56                a,e,i = 2.25, 0.56, 4                   q = 0.9837
    Date    TT    R. A. (2000) Decl.     Delta      r     Elong.  Phase     V
    2015 04 22    07 10 39.1 +05 46 17   0.1439  0.9841    77.6    94.2    25.3
    ...
    2015 05 07    08 01 53.4 +02 14 37   0.06821 0.9956    76.9    99.3    24.0
    ...
    2015 05 15    09 59 35.1 -06 01 35   0.03237 1.0169   100.1    78.1    21.5
    ...
    2015 05 21    14 22 26.1 -15 59 59   0.02891 1.0390   159.1    20.4    19.6
    2015 05 22    14 59 24.2 -15 55 37   0.03187 1.0432   166.6    13.0    19.6
    2015 05 23    15 29 28.5 -15 34 52   0.03547 1.0475   171.9     7.9    19.6
    ...
    2015 05 29    17 00 52.2 -13 03 13   0.06384 1.0758   167.3    11.9    21.1
    ...
    2015 06 06    17 38 28.2 -11 34 41   0.1084  1.1196   164.7    13.8    22.4
    ...
    2015 06 21    17 58 08.7 -11 21 07   0.2034  1.2158   167.9    10.1    23.8
    
    A. U. Tomatic                (C) Copyright 2015 MPC           M.P.E.C. 2015-K54
    

    Read MPEC 2015-K53 Read MPEC 2015-K55


    MPEC number:

    Enter an MPEC number in one of the following forms:

    • 1997-B01 (the full form)
    • J97B01 (the packed version of the full form)
    • B01 (the abbreviated form)